Location: ??????????
(54.4061°N, 22.6114°E)
Time: 03:11:52
(UTC+00:00)

STARLINK-39 - Pass Details

Date: 23 October 2019
Orbit: 548 x 551 km, 53.0° (Epoch: 20 November)

Event Time Altitude Azimuth Distance (km) Brightness Sun altitude
Rises 16:11:29 0° 267° (W) 2,718 9.6 -8.9°
Reaches altitude 10° 16:13:43 10° 266° (W) 1,825 8.0 -9.3°
Maximum altitude 16:17:51 75° 181° (S) 575 3.7 -9.9°
Enters shadow 16:21:22 14° 97° (E) 1,582 5.3 -10.4°
